Regional Weather Roundup
Issued by NWS

Home | Current Version | Previous Version | Text Only | Print | Product List | Glossary Off
Versions: 1 2 3 4 5 6 7 8 9 10 11 12 13 14 15 16 17 18 19 20 21 22 23 24 25 26 27 28 29 30 31 32 33 34 35 36 37 38 39 40 41 42 43 44 45 46 47 48 49 50

000
ASUS43 KFSD 022210
RWRSD

WEATHER ROUNDUP FOR SOUTH DAKOTA
NATIONAL WEATHER SERVICE SIOUX FALLS SD
500 PM CDT SAT MAY 02 2015

NOTE: "FAIR" INDICATES FEW OR NO CLOUDS BELOW 12,000 FEET WITH NO
SIGNIFICANT WEATHER AND/OR OBSTRUCTIONS TO VISIBILITY.


SDZ001>005-009-010-012>017-022300-
NORTHWEST AND NORTH CENTRAL SOUTH DAKOTA

CITY           SKY/WX    TMP DP  RH WIND       PRES   REMARKS
BUFFALO          N/A     77  24  14 W13G25    29.66F
FAITH            N/A     81  29  15 NW20      29.67R
MOBRIDGE       PTSUNNY   86  29  12 SW9       29.57F
$$

SDZ012>016-024>037-041>051-057-063-072>074-022300-
SOUTHWEST AND SOUTH CENTRAL SOUTH DAKOTA

CITY           SKY/WX    TMP DP  RH WIND       PRES   REMARKS
RAPID CTY ARPT MOSUNNY   82  36  19 N20       29.70S
PIERRE         MOSUNNY   85  32  15 S9        29.62F
CUSTER         PTSUNNY   68  19  15 W13G18    29.85S
ELLSWORTH AFB  MOSUNNY   82  32  17 N21       29.70S
PHILIP         MOSUNNY   88  31  13 SW13G18   29.63F
PINE RIDGE     SUNNY     82  27  13 W16G24    29.72F
SPEARFISH      FAIR      73  32  21 N14       29.77F
WINNER         FAIR      87  36  16 S10G18    29.68F
$$

SDZ004>011-016>023-039-040-022300-
NORTHEAST SOUTH DAKOTA

CITY           SKY/WX    TMP DP  RH WIND       PRES   REMARKS
ABERDEEN       PTSUNNY   87  36  16 S18G33    29.62F
WATERTOWN      MOSUNNY   82  43  25 SW18G24   29.69F
BROOKINGS      MOSUNNY   81  39  22 S20       29.73F
SISSETON         N/A     85  35  16 SW15      29.63F
$$

SDZ017-020-022-023-036>040-048>070-022300-
SOUTHEAST SOUTH DAKOTA

CITY           SKY/WX    TMP DP  RH WIND       PRES   REMARKS
SIOUX FALLS    MOSUNNY   79  45  29 S14       29.75F
HURON          SUNNY     84  39  20 S14G24    29.66F
CHAMBERLAIN    SUNNY     84  41  21 S12       29.67F
MITCHELL       MOSUNNY   84  45  25 S17       29.70F
YANKTON        SUNNY     81  54  39 S10G17    29.72F
$$

ABBREVIATIONS USED IN REMARKS
   TC - TEMPERATURE IN CELSIUS
  WCI - WIND CHILL INDEX
   HX - HEAT INDEX
  VSB - VISIBILITY



USA.gov is the U.S. government's official web portal to all federal, state and local government web resources and services.